Valparaiso, FL

9:43 PM CDT on April 29, 2017 (GMT -0500)
Eglin Air Force Base

Weather History for KVPS - May, 2013

Change the Weather History Date:

Wednesday, May 1, 2013

  Actual Average Record
Temperature  
Mean Temperature 70 °F -  
Max Temperature 73 °F 81 °F 89 °F (1955)
Min Temperature 68 °F 56 °F 44 °F (1973)
Cooling Degree Days 6    
Growing Degree Days 20 (Base 50)    
Moisture  
Dew Point 66 °F    
Average Humidity 86    
Maximum Humidity 95    
Minimum Humidity 73    
Precipitation  
Precipitation 0.03 in - - ()
Sea Level Pressure  
Sea Level Pressure 29.96 in    
Wind  
Wind Speed 8 mph (ENE)    
Max Wind Speed 16 mph    
Max Gust Speed 24 mph    
Visibility 10 miles    
Events Rain    
Averages and records for this station are not official NWS values.
T = Trace of Precipitation, MM = Missing Value Source: NWS Daily Summary

Daily Weather History Graph

Daily Weather History Graph

Search for Another Location

Airport or City:

Trip Planner

Search our weather history database for the weather conditions in past years. The results will help you decide how hot, cold, wet, or windy it might be!

Date:

Astronomy

May. 01, 2013 Rise Set
Actual Time 6:02 AM CDT 7:24 PM CDT
Civil Twilight 5:36 AM CDT 7:49 PM CDT
Nautical Twilight 5:06 AM CDT 8:20 PM CDT
Astronomical Twilight 4:34 AM CDT 8:52 PM CDT
Moon 12:32 AM CDT (5/1) 11:40 AM CDT (5/1)
Length of Visible Light 14h 13m
Length of Day
13h 22m
Waning Gibbous, 59% of the Moon is Illuminated
May 1
Waning Gibbous
May 2
Last Quarter
May 9
New
May 17
First Quarter
May 24
Full

Hourly Weather History & Observations

Time (CDT) Temp. Dew Point Humidity Pressure Visibility Wind Dir Wind Speed Gust Speed Precip Events Conditions
12:22 AM 71.6 °F 68.0 °F 88% 29.95 in 10.0 mi Calm Calm - N/A Rain Light Rain
12:59 AM 70.7 °F 68.0 °F 91% 29.94 in 10.0 mi North 3.5 mph - 0.00 in   Overcast
1:57 AM 69.3 °F 67.6 °F 95% 29.94 in 10.0 mi Calm Calm - 0.00 in Rain Light Rain
2:41 AM 69.8 °F 68.0 °F 94% 29.91 in 10.0 mi ENE 3.5 mph - N/A   Overcast
2:58 AM 70.0 °F 68.2 °F 94% 29.91 in 10.0 mi ENE 4.6 mph - 0.01 in   Overcast
3:55 AM 70.0 °F 68.2 °F 94% 29.92 in 10.0 mi ENE 4.6 mph - N/A   Overcast
4:19 AM 69.8 °F 68.0 °F 94% 29.92 in 7.0 mi East 5.8 mph - N/A Rain Light Rain
4:55 AM 70.3 °F 68.0 °F 92% 29.92 in 10.0 mi ENE 6.9 mph - 0.01 in   Overcast
5:55 AM 69.3 °F 67.5 °F 94% 29.93 in 10.0 mi East 8.1 mph - N/A   Overcast
6:18 AM 69.8 °F 68.0 °F 94% 29.93 in 10.0 mi East 10.4 mph - N/A   Overcast
6:55 AM 69.6 °F 67.6 °F 93% 29.95 in 10.0 mi East 11.5 mph 17.3 mph N/A   Overcast
7:12 AM 69.8 °F 68.0 °F 94% 29.95 in 10.0 mi ENE 11.5 mph 18.4 mph N/A   Overcast
7:42 AM 69.8 °F 68.0 °F 94% 29.96 in 10.0 mi East 10.4 mph - N/A   Overcast
7:56 AM 69.4 °F 66.4 °F 90% 29.97 in 10.0 mi NE 12.7 mph - N/A   Overcast
8:55 AM 70.0 °F 64.9 °F 84% 29.97 in 10.0 mi East 9.2 mph - N/A   Overcast
9:17 AM 69.8 °F 64.4 °F 83% 29.97 in 10.0 mi East 10.4 mph 16.1 mph N/A Rain Light Rain
9:44 AM 68.0 °F 64.4 °F 88% 29.99 in 10.0 mi East 9.2 mph - N/A   Mostly Cloudy
9:55 AM 69.1 °F 64.4 °F 85% 30.00 in 10.0 mi East 9.2 mph - 0.01 in   Overcast
10:03 AM 69.8 °F 64.4 °F 83% 30.00 in 10.0 mi ENE 9.2 mph - N/A Rain Light Rain
10:21 AM 68.0 °F 64.4 °F 88% 30.00 in 10.0 mi ENE 8.1 mph - N/A   Mostly Cloudy
10:55 AM 68.9 °F 64.8 °F 87% 30.00 in 10.0 mi ENE 9.2 mph - 0.00 in   Overcast
11:55 AM 70.2 °F 63.9 °F 80% 29.99 in 10.0 mi East 10.4 mph - N/A   Overcast
12:55 PM 71.8 °F 63.5 °F 75% 29.98 in 10.0 mi East 10.4 mph 19.6 mph N/A   Overcast
1:15 PM 73.4 °F 64.4 °F 73% 29.97 in 10.0 mi East 15.0 mph - N/A   Overcast
1:27 PM 73.4 °F 64.4 °F 73% 29.97 in 10.0 mi East 16.1 mph 23.0 mph N/A   Overcast
1:55 PM 71.4 °F 63.9 °F 77% 29.98 in 10.0 mi East 11.5 mph 18.4 mph N/A   Overcast
2:55 PM 73.2 °F 64.6 °F 74% 29.96 in 10.0 mi ENE 15.0 mph 19.6 mph N/A   Overcast
3:55 PM 70.7 °F 64.0 °F 79% 29.96 in 10.0 mi East 13.8 mph 20.7 mph N/A   Overcast
4:12 PM 69.8 °F 64.4 °F 83% 29.95 in 10.0 mi ENE 16.1 mph 21.9 mph N/A   Overcast
4:55 PM 70.2 °F 64.2 °F 81% 29.95 in 10.0 mi East 16.1 mph 21.9 mph N/A   Overcast
5:55 PM 70.3 °F 64.2 °F 81% 29.95 in 10.0 mi East 15.0 mph 23.0 mph N/A   Overcast
6:55 PM 69.8 °F 64.4 °F 83% 29.96 in 10.0 mi East 10.4 mph 19.6 mph N/A   Overcast
7:32 PM 69.8 °F 64.4 °F 83% 29.96 in 10.0 mi East 12.7 mph 18.4 mph N/A   Overcast
7:55 PM 70.0 °F 64.2 °F 82% 29.99 in 10.0 mi East 10.4 mph 24.2 mph N/A   Overcast
8:55 PM 69.3 °F 64.4 °F 84% 30.00 in 10.0 mi ENE 10.4 mph - N/A   Overcast
9:55 PM 69.1 °F 64.8 °F 86% 29.99 in 10.0 mi East 11.5 mph - N/A   Mostly Cloudy
10:27 PM 69.8 °F 64.4 °F 83% 29.98 in 10.0 mi East 9.2 mph 18.4 mph N/A   Mostly Cloudy
10:55 PM 69.1 °F 64.8 °F 86% 30.00 in 10.0 mi East 11.5 mph - N/A   Mostly Cloudy
11:45 PM 69.8 °F 64.4 °F 83% 29.98 in 10.0 mi East 15.0 mph 23.0 mph N/A   Mostly Cloudy
11:55 PM 69.3 °F 64.4 °F 84% 30.00 in 10.0 mi East 13.8 mph 19.6 mph N/A   Mostly Cloudy